Home   Weather   Ludwigsburg   Past weeks

Flag for Germany Past Weather in Ludwigsburg, Baden-Württemberg, Germany — Yesterday and Last 2 Weeks

Now
55 °F

Partly sunny.


Feels Like: 51 °F
Forecast: 38 / 47 °F
Wind: 16 mph from Northwest

Location: Stuttgart-Echterdingen

Current Time: Apr 25, 2017 at 2:59:30 pm

Latest Report: Apr 25, 2017 at 2:20 pm


Visibility: N/A

Pressure: 29.74 "Hg

Humidity: 51%

Dew Point: 37 °F

Location of LudwigsburgLocation

Past Weather in Ludwigsburg — Graph

°F

Ludwigsburg Temperature Yesterday

Maximum temperature yesterday: 66 °F (at 5:50 pm)
Minimum temperature yesterday: 30 °F (at 4:50 am)
Average temperature yesterday: 48 °F

High & Low Weather Summary for the Past Weeks

 TemperatureHumidityPressure
High73 °F (Apr 10, 1:20 pm)100% (Apr 18, 9:20 pm)30.54 "Hg (Apr 18, 9:20 pm)
Low27 °F (Apr 20, 5:20 am)20% (Apr 10, 2:50 pm)29.74 "Hg (Apr 25, 2:20 am)
Average46 °F65%30.14 "Hg
* Reported Apr 10 1:20 pm — Apr 25 1:50 pm, Ludwigsburg, Weather by CustomWeather, © 2017

Note: Actual official high and low records may vary slightly from our data, if they occured in-between our weather recording intervals... More about our weather records

Advertising

Ludwigsburg Weather History for the Previous 24 Hours

Scroll right to see more
 ConditionsComfort  
Time TempWeatherWind HumidityBarometerVisibility
1:50 pm
Tue, Apr 25
57 °FBroken clouds.15 mph48%29.74 "HgN/A
1:20 pm57 °FBroken clouds.15 mph51%29.74 "HgN/A
12:50 pm57 °FBroken clouds.16 mph44%29.74 "HgN/A
12:20 pm55 °FBroken clouds.12 mph51%29.74 "HgN/A
11:50 am54 °FBroken clouds.9 mph51%29.77 "HgN/A
11:20 am54 °FPartly sunny.9 mph51%29.77 "HgN/A
10:50 am54 °FPartly sunny.6 mph54%29.77 "HgN/A
10:20 am52 °FPassing clouds.5 mph54%29.74 "HgN/A
9:50 am52 °FPassing clouds.7 mph54%29.77 "HgN/A
9:20 am52 °FPassing clouds.5 mph54%29.74 "HgN/A
8:50 am50 °FPassing clouds.5 mph58%29.77 "HgN/A
8:20 am50 °FPassing clouds.5 mph58%29.74 "HgN/A
7:50 am48 °FPassing clouds.3 mph62%29.74 "HgN/A
7:20 am46 °FSunny.1 mph66%29.74 "Hg10 mi
6:50 am45 °FSunny.2 mph71%29.74 "Hg10 mi
5:50 am43 °FClear.2 mph76%29.74 "Hg10 mi
4:20 am45 °FClear.5 mph71%29.74 "Hg10 mi
3:50 am41 °FClear.2 mph81%29.74 "Hg10 mi
3:20 am45 °FClear.2 mph71%29.74 "Hg10 mi
2:50 am43 °FPassing clouds.5 mph76%29.74 "HgN/A
2:20 am45 °FClear.2 mph71%29.74 "Hg10 mi
1:50 am46 °FClear.1 mph71%29.77 "Hg10 mi
12:50 am45 °FClear.2 mph71%29.77 "Hg10 mi
12:20 am46 °FClear.7 mph71%29.77 "Hg10 mi
11:50 pm
Mon, Apr 24
46 °FClear.5 mph71%29.77 "Hg10 mi
11:20 pm46 °FClear.5 mph66%29.80 "Hg10 mi
10:50 pm48 °FClear.3 mph66%29.80 "Hg10 mi
10:20 pm48 °FClear.3 mph62%29.80 "Hg10 mi
9:50 pm52 °FClear.1 mph58%29.80 "Hg10 mi
9:20 pm54 °FClear.2 mph51%29.80 "Hg10 mi
8:50 pm55 °FClear.2 mph44%29.80 "Hg10 mi
8:20 pm57 °FSunny.3 mph41%29.80 "Hg10 mi
7:50 pm59 °FPassing clouds.6 mph42%29.83 "HgN/A
7:20 pm61 °FPassing clouds.7 mph39%29.83 "HgN/A
6:50 pm61 °FPassing clouds.9 mph36%29.83 "HgN/A
6:20 pm63 °FPassing clouds.9 mph34%29.83 "HgN/A
5:50 pm66 °FSunny.3 mph30%29.83 "Hg10 mi
5:20 pm64 °FPassing clouds.7 mph30%29.86 "HgN/A
4:50 pm64 °FSunny.3 mph32%29.86 "Hg10 mi
4:20 pm64 °FPassing clouds.7 mph30%29.89 "HgN/A
3:50 pm63 °FSunny.5 mph30%29.92 "Hg10 mi
3:20 pm63 °FSunny.5 mph32%29.92 "Hg10 mi
2:50 pm61 °FPassing clouds.6 mph31%29.95 "HgN/A
2:20 pm61 °FSunny.3 mph29%29.95 "Hg10 mi
Weather by CustomWeather, © 2017

See weather overviewHow to use our weather pages